EHI
0 0 0 0 0 0 0 0 0 0 0 0 0 1 2 2 5 15 30 41 49 56 60 61 59 63 73 84 85 76 63 52 42 35 32 28 25 24 26 30 27 18 9 5
0 0 0 0 0 0 0 0 0 0 0 0 0 1 2 3 3 11 25 39 50 60 68 70 66 66 74 85 86 77 67 57 48 40 35 29 26 25 25 30 30 22 12 9
0 0 0 0 0 0 0 0 0 0 0 0 0 1 2 2 2 7 16 30 46 62 75 79 74 71 76 83 85 80 73 63 53 46 38 31 27 25 27 34 37 30 20 16
0 0 0 0 0 0 0 0 0 0 0 0 0 1 2 2 3 5 10 20 37 57 73 79 79 76 75 79 84 83 78 68 57 48 40 33 30 28 31 40 42 36 27 21
0 0 0 0 0 0 0 0 0 0 0 0 0 0 1 2 3 5 9 16 29 47 64 75 80 78 74 74 80 83 80 73 62 52 42 36 33 32 34 40 40 36 30 25
0 0 0 0 0 0 0 0 0 0 0 0 0 0 0 1 3 6 9 16 28 42 57 71 78 78 73 71 76 82 81 76 68 56 45 40 37 35 36 39 38 34 31 30
0 0 0 0 0 0 0 0 0 0 0 0 0 0 0 1 3 6 9 15 27 40 52 64 73 75 74 72 76 80 81 77 70 60 50 44 39 37 39 42 41 37 33 31
0 0 0 0 0 0 0 0 0 0 0 0 0 0 0 1 3 5 8 12 21 33 45 57 67 73 75 75 76 80 80 78 72 64 57 50 42 38 41 43 41 39 34 27
0 0 0 0 0 0 0 0 0 0 0 0 0 0 1 2 4 6 9 12 17 26 39 53 65 71 73 75 77 79 79 77 73 67 61 54 47 44 46 43 38 35 29 23
0 0 0 0 0 0 0 0 0 0 0 0 0 0 2 5 7 10 14 17 21 27 38 53 64 68 69 74 77 77 77 78 75 70 63 56 52 52 51 45 37 30 24 20
0 0 0 0 0 0 0 0 0 0 0 0 0 1 4 7 9 12 17 23 26 30 40 54 64 65 64 69 75 76 77 78 78 74 67 60 57 56 53 46 38 28 21 18
0 0 0 0 0 0 0 0 0 0 0 0 0 2 5 8 10 11 16 23 29 34 43 56 66 66 64 68 73 75 77 79 79 76 71 65 61 57 53 47 40 32 25 21
0 0 0 0 0 0 0 0 0 0 0 0 1 3 7 10 12 13 17 24 30 39 51 62 70 73 72 73 76 75 75 78 78 76 74 69 63 58 53 48 42 36 29 24
0 0 0 0 0 0 0 0 0 0 0 0 1 4 9 12 14 17 22 29 36 47 62 72 78 82 82 82 82 78 76 77 78 78 76 71 64 59 55 50 45 39 30 24
0 0 0 0 0 0 0 0 0 0 0 0 1 5 11 15 17 21 27 34 43 55 69 79 86 90 91 90 88 84 81 81 82 80 78 74 68 63 59 54 48 41 31 25
0 0 0 0 0 0 0 0 0 0 0 0 2 7 13 17 22 27 32 38 47 57 68 80 90 95 96 95 91 87 86 86 85 82 80 77 73 69 64 57 51 44 37 33
0 0 0 0 0 0 0 0 0 0 1 1 4 11 17 23 30 39 44 47 53 60 69 80 89 94 96 95 90 86 85 84 82 80 79 78 76 73 68 61 54 49 42 39
0 0 0 0 0 0 0 1 1 1 3 6 10 17 24 30 39 50 57 59 62 69 75 80 85 90 93 93 89 84 82 82 81 80 80 80 78 75 70 65 59 52 45 40
0 0 0 0 0 0 1 1 2 3 7 13 21 26 29 33 40 52 61 65 70 75 78 79 82 85 89 91 90 86 83 84 84 82 82 82 81 76 72 68 60 52 46 42
0 0 0 0 0 1 2 2 2 6 14 24 32 35 37 41 46 53 60 67 73 75 75 76 78 81 85 88 89 87 86 86 85 83 83 83 80 75 71 66 59 52 47 44
0 0 0 0 0 3 6 7 9 19 33 42 44 46 51 56 58 58 61 66 71 74 73 74 76 78 79 82 85 86 86 84 82 81 82 79 73 68 66 63 58 53 47 43
1 2 3 4 7 13 20 23 30 43 54 57 55 54 58 61 60 60 62 63 66 69 70 70 72 73 72 73 77 80 81 78 75 75 75 72 66 61 59 60 58 54 48 43
4 8 11 14 20 27 33 38 47 56 61 59 55 53 53 54 56 58 61 61 61 62 64 65 66 66 66 66 67 69 71 69 66 66 68 66 62 57 56 56 54 49 44 39
8 12 18 24 30 33 35 37 43 49 52 50 48 46 46 49 54 57 58 57 56 57 59 60 60 60 60 60 60 60 61 61 59 60 62 62 59 55 52 48 43 38 33 30
9 13 21 26 29 31 31 29 31 35 38 40 41 40 41 45 49 52 54 53 51 53 55 55 54 53 53 55 57 56 56 56 54 54 55 55 53 48 42 36 29 23 20 18
8 14 21 25 27 29 29 26 25 26 30 35 37 36 37 41 45 47 49 49 48 50 51 50 49 48 48 51 55 54 53 52 50 49 49 48 48 43 36 29 22 14 11 10
Wind_Speed
11 11 12 11 9 7 7 7 3 1 2 3 2 4 8 8 9 9 10 11 12 12 12 11 11 11 12 10 9 8 7 6 4 3 3 2 2 2 2 3 4 4 4 4
12 14 13 9 7 7 8 9 6 3 3 3 2 2 4 7 8 9 10 12 12 13 12 11 11 10 11 10 9 9 7 7 6 4 3 2 2 3 3 2 4 4 4 4
14 10 9 10 10 10 9 8 7 5 3 4 5 3 3 5 7 9 9 10 12 14 14 12 11 10 10 11 10 9 8 8 7 5 4 2 1 1 1 3 3 3 4 4
13 11 8 10 11 11 9 7 7 7 6 6 7 3 5 7 8 9 10 10 11 12 13 13 12 11 11 11 10 8 8 7 6 6 5 5 4 3 3 2 3 3 3 3
11 11 10 11 11 10 9 7 8 9 9 9 7 4 3 5 7 8 9 10 10 12 13 13 13 11 10 10 10 9 8 7 7 6 5 4 3 2 2 2 3 3 2 3
13 11 10 11 10 9 9 9 9 10 10 9 9 5 2 3 4 6 9 10 10 11 12 12 12 10 9 10 10 10 9 7 7 6 6 5 4 3 2 2 2 2 2 2
14 13 11 9 11 10 10 9 7 8 8 6 6 5 4 6 4 5 8 9 11 11 11 12 12 11 10 10 10 10 10 8 7 7 6 5 5 4 4 3 3 3 2 2
14 14 14 12 13 10 11 13 10 8 6 2 5 5 5 7 7 6 7 9 10 11 11 12 12 11 10 10 10 10 10 8 8 7 6 5 5 4 3 4 3 3 2 2
12 13 13 14 12 13 13 12 13 13 11 7 6 3 5 8 8 8 8 8 9 9 11 11 12 12 11 10 10 10 9 9 8 8 6 5 5 3 3 3 3 3 2 2
13 11 11 12 11 13 14 12 9 10 8 8 6 5 2 8 7 8 8 9 9 9 10 11 11 11 11 11 10 10 10 8 8 7 6 6 5 4 3 3 3 2 1 1
13 12 13 11 13 14 14 14 11 8 9 9 5 2 4 6 6 7 8 8 8 8 10 11 10 11 11 11 11 10 9 9 8 8 6 5 6 5 4 3 3 2 2 2
9 10 12 13 12 13 14 14 13 9 8 9 6 3 2 4 6 6 6 8 8 8 9 11 11 10 10 11 11 10 10 10 9 8 7 6 5 5 5 4 3 3 3 2
5 8 10 13 13 13 14 14 14 12 9 9 9 4 4 3 3 5 5 6 6 6 7 9 9 9 9 9 10 10 10 9 9 9 8 6 6 5 4 3 3 3 3 3
6 8 12 14 10 10 12 15 15 14 11 10 10 6 4 4 3 4 5 5 5 6 6 7 6 6 7 7 8 8 8 8 8 8 8 7 6 5 5 4 4 3 3 3
8 11 14 17 18 16 13 14 16 16 14 13 10 7 5 2 2 4 5 4 4 5 7 8 7 6 6 7 7 7 7 8 7 7 7 7 6 5 5 4 4 4 3 3
6 10 13 16 18 18 16 15 15 15 14 14 13 9 4 4 4 3 3 4 4 4 5 7 7 7 7 6 6 6 6 6 6 7 7 7 6 6 5 5 5 4 3 3
6 7 11 14 16 17 19 15 16 14 13 13 11 6 3 3 4 4 3 3 3 2 3 5 6 6 6 6 5 6 5 6 6 6 6 7 7 6 6 6 5 5 4 3
9 8 8 12 14 19 14 13 14 13 11 10 6 2 2 4 6 6 4 3 3 2 1 3 4 5 5 6 6 5 6 6 6 6 6 6 6 6 6 5 5 4 3 3
12 9 10 11 15 17 15 12 13 11 8 7 3 3 3 5 7 6 5 3 3 3 2 1 2 4 4 4 5 6 6 6 6 6 5 6 6 6 6 5 5 4 4 3
14 10 11 12 15 16 10 9 10 9 7 3 1 1 2 3 2 4 4 4 5 5 4 2 2 3 3 2 3 5 6 6 5 5 5 5 5 6 6 5 5 4 4 3
14 14 15 16 16 12 7 8 9 8 2 3 2 2 3 5 5 6 6 7 6 5 4 4 4 4 3 3 3 4 4 4 4 4 3 4 5 5 4 4 4 4 4 4
11 12 13 14 16 10 6 5 3 3 4 5 6 6 7 8 7 7 7 7 6 6 6 6 5 5 4 3 3 3 3 3 3 3 3 3 3 3 4 4 4 4 4 4
9 7 5 4 4 3 5 6 5 5 6 7 6 7 6 6 6 7 7 7 7 6 6 5 5 5 4 3 3 2 2 2 3 3 3 3 3 2 3 4 4 4 3 4
4 3 3 2 1 2 3 4 6 6 6 7 7 7 6 6 6 6 6 6 5 6 5 5 4 4 4 3 3 2 2 2 2 3 3 3 3 3 3 3 3 3 3 3
8 6 4 2 1 4 3 3 5 5 5 6 6 6 6 6 5 5 5 4 4 4 4 4 3 3 3 3 2 2 2 2 2 2 2 3 4 4 3 3 2 1 1 0
6 6 5 3 3 3 2 4 3 3 4 4 5 5 5 5 5 4 4 3 3 3 3 3 4 4 3 3 3 3 3 2 2 1 2 1 2 3 3 4 3 6 4 4
Wind_Direction
236 239 246 248 250 264 288 288 261 183 232 255 216 173 167 173 172 159 162 164 166 168 166 162 166 164 160 159 160 164 171 165 171 173 178 183 180 191 184 178 163 176 197 189
243 237 248 259 267 263 262 276 269 219 198 261 273 251 187 176 174 167 167 168 170 167 164 164 168 169 165 162 165 169 174 171 180 178 176 187 185 203 183 178 162 184 193 194
240 244 232 246 251 252 255 265 284 292 302 262 248 236 256 198 178 163 170 170 169 169 166 168 173 172 171 168 173 176 176 177 184 176 177 186 173 238 183 172 172 195 197 200
241 241 240 241 246 255 259 260 273 280 275 275 259 241 218 205 186 173 170 168 168 163 164 168 172 174 175 173 171 168 172 177 178 181 193 192 194 201 195 180 171 193 204 201
241 232 234 241 246 253 269 287 280 276 270 271 274 262 207 208 188 174 166 164 160 162 164 168 170 173 173 171 167 166 168 172 176 188 196 202 208 205 193 174 171 186 199 218
258 249 234 238 245 251 266 269 266 264 263 254 258 255 197 218 176 163 153 148 149 154 156 159 161 163 167 167 166 164 163 171 177 188 197 198 206 210 204 185 175 193 200 213
241 245 239 240 244 230 239 249 252 246 241 249 252 239 176 164 139 137 142 142 147 150 151 154 158 162 167 167 167 162 163 172 180 187 196 194 203 207 208 212 197 203 207 205
225 228 223 221 236 241 230 241 250 263 269 260 250 236 144 127 117 122 132 136 145 154 156 159 161 162 167 168 165 162 165 171 178 184 188 191 199 212 203 201 205 202 213 200
247 236 215 209 221 242 245 243 256 265 265 261 239 227 147 145 142 143 140 142 151 153 153 158 159 162 166 168 165 164 162 170 179 184 182 189 195 205 203 193 204 202 201 200
262 274 245 203 210 231 252 261 264 264 274 273 247 240 198 142 148 149 150 151 149 151 156 154 157 162 165 166 161 163 165 171 174 175 181 182 186 192 197 200 192 197 206 220
251 262 261 233 212 225 225 241 260 277 275 274 269 298 110 137 158 161 157 147 148 165 162 155 158 160 164 164 162 165 164 167 172 175 179 177 173 184 183 190 197 197 213 205
246 254 259 254 235 227 238 234 235 245 260 275 270 244 152 147 151 148 147 145 152 166 161 155 156 160 166 166 164 165 170 173 175 174 172 175 172 176 184 187 187 191 200 209
288 257 252 251 245 227 231 238 241 245 249 256 263 227 175 146 125 135 135 134 139 152 148 143 153 161 167 163 161 166 172 172 175 173 172 175 177 179 183 184 177 181 191 195
289 260 258 254 252 248 234 236 239 244 247 246 247 228 202 164 152 133 127 131 144 148 134 132 142 154 155 152 154 162 170 166 171 171 175 173 178 179 178 179 174 173 179 182
265 257 257 266 271 266 252 243 236 236 244 255 259 241 188 161 150 123 127 132 144 150 144 142 155 150 148 149 157 166 168 167 168 168 172 172 174 171 172 176 168 165 179 183
252 269 271 264 264 267 261 255 251 245 243 248 251 254 181 160 135 120 119 145 143 142 152 154 153 153 155 157 165 169 167 163 161 167 173 168 170 170 170 169 162 165 173 168
254 261 268 265 261 263 257 251 253 252 249 250 252 247 186 154 126 111 99 97 109 136 150 153 158 161 162 166 167 169 164 163 166 169 171 169 171 169 166 172 167 168 169 165
261 268 265 264 265 255 256 262 261 258 256 254 245 192 149 109 96 83 66 60 87 90 113 152 165 164 167 172 174 171 169 167 169 172 173 170 169 168 165 166 162 158 157 160
240 241 253 257 254 253 258 263 268 258 256 268 249 190 148 110 108 90 65 50 52 62 56 87 152 159 158 167 171 165 166 162 167 173 175 169 169 167 166 169 162 155 156 158
228 224 237 249 255 254 252 269 277 265 244 283 8 90 119 136 164 105 78 59 45 40 43 58 85 107 120 131 149 159 163 163 173 176 173 166 164 169 171 167 162 158 159 164
219 219 226 240 251 258 284 291 283 255 265 28 54 55 63 56 63 77 69 64 57 54 42 60 72 73 73 89 117 138 147 157 157 151 154 161 164 169 162 159 159 155 162 162
233 230 226 234 245 248 345 320 325 36 42 48 62 58 61 70 76 79 71 62 54 48 49 53 60 64 57 65 89 116 123 123 129 137 134 138 154 172 162 154 156 163 166 166
251 256 261 256 264 40 25 42 34 46 56 54 63 67 68 69 71 69 63 58 52 46 46 49 57 64 57 59 73 103 110 118 135 148 149 151 151 149 142 150 159 167 174 186
270 298 275 285 296 23 30 48 36 38 53 61 53 52 51 53 61 62 57 55 53 46 43 50 53 55 52 48 49 69 89 112 137 151 153 157 155 140 132 140 158 166 184 204
316 316 305 283 332 6 6 38 55 37 47 61 63 56 50 54 55 56 61 57 55 50 39 40 48 51 44 38 41 45 69 103 120 139 150 163 158 142 134 123 83 135 104 76
313 318 308 298 331 319 357 357 32 43 39 44 51 53 50 46 44 47 56 54 52 55 46 38 31 34 30 27 32 34 43 68 100 131 149 169 159 151 151 145 118 61 77 71